Regional Weather Roundup
Issued by NWS Upton, NY

Current Version | Previous Version | Text Only | Print | Product List | Glossary On
Versions: 1 2 3 4 5 6 7 8 9 10 11 12 13 14 15 16 17 18 19 20 21 22 23 24 25 26 27 28 29 30 31 32 33 34 35 36 37 38 39 40 41 42 43 44 45 46 47 48 49 50
000 ASUS41 KOKX 040018 RWROKX REGIONAL WEATHER ROUNDUP NATIONAL WEATHER SERVICE NEW YORK NY 800 PM EDT FRI JUL 03 2015 NOTE: "FAIR" INDICATES FEW OR NO CLOUDS BELOW 12,000 FEET WITH NO SIGNIFICANT WEATHER AND/OR OBSTRUCTIONS TO VISIBILITY. NYZ071-072-176-178-NJZ106-104-040100- NEW YORK CITY METRO AREA CITY SKY/WX TMP DP RH WIND PRES REMARKS CENTRAL PARK MOCLDY 75 57 53 MISG 29.98S LAGUARDIA APRT MOCLDY 75 56 51 S13 29.95R KENNEDY INTL MOCLDY 74 61 63 SE7 29.98R NEWARK/LIBERTY CLOUDY 77 61 57 S7 29.95R BRNX BOT. GARD N/A 73 57 56 S6 29.96S TETERBORO MOCLDY 77 59 53 S6 29.94R $$ NYZ177-179-078>081-040100- LONG ISLAND NEW YORK CITY SKY/WX TMP DP RH WIND PRES REMARKS FARMINGDALE MOCLDY 73 55 53 S6 29.97F ISLIP MOCLDY 71 58 63 S6 29.96S SHIRLEY PTCLDY 69 58 67 SE3 29.98F WESTHAMPTON PTCLDY 68 59 73 SE3 29.99F MONTAUK POINT N/A 69 60 73 S3 30.00S $$ NYZ052-065-067-040100- HUDSON VALLEY CITY SKY/WX TMP DP RH WIND PRES REMARKS WHITE PLAINS MOCLDY 71 55 56 CALM 29.97S NEWBURGH MOCLDY 73 55 53 VRB5 29.97S MONTGOMERY CLOUDY 71 60 68 CALM 29.96R POUGHKEEPSIE CLOUDY 73 55 53 CALM 29.95S ALBANY MOCLDY 74 47 38 E5 29.96S $$ NJZ001-105-106-008-010-013-015-019>022-104-040100- NEW JERSEY CITY SKY/WX TMP DP RH WIND PRES REMARKS NEWARK/LIBERTY CLOUDY 77 61 57 S7 29.95R TETERBORO MOCLDY 77 59 53 S6 29.94R CALDWELL MOCLDY 77 55 46 CALM 29.96R MORRISTOWN CLOUDY 79 61 53 CALM 29.96R SOMERVILLE CLOUDY 73 63 70 CALM 29.93S SUSSEX CLOUDY 72 62 71 CALM 29.96R ANDOVER N/A 70 63 78 CALM 29.97R TRENTON CLOUDY 77 60 55 SE9 29.94F MILLVILLE CLOUDY 72 65 78 S3 29.96F ATLANTIC CITY MOCLDY 72 62 71 S7 29.97F WRIGHTSTOWN CLOUDY 73 61 67 SE9 29.94S TOMS RIVER CLOUDY 72 59 64 CALM 29.98S BELMAR CLOUDY 72 57 60 S5 29.97S $$ PAZ047>061-062-071-040100- EASTERN PENNSYLVANIA CITY SKY/WX TMP DP RH WIND PRES REMARKS PHILADELPHIA CLOUDY 78 61 55 S9 29.95S ALLENTOWN CLOUDY 77 60 55 S6 29.95S SCRANTON CLOUDY 75 59 57 VRB6 29.95S $$ CTZ002-004>006-009-010-012-RIZ004-006-007-MAZ004-011-015-040100- SOUTHERN NEW ENGLAND IN CT CITY SKY/WX TMP DP RH WIND PRES REMARKS BRADLEY INTL MOCLDY 74 54 49 W5 29.95R HARTFORD MOCLDY 73 56 54 S6 29.95S DANBURY MOCLDY 69 57 65 CALM 29.99S WTRBRY/OXFORD CLEAR 70 54 56 SE6 30.00F BRIDGEPORT MOCLDY 72 61 68 S7 29.97S MERIDEN MOCLDY 71 56 58 CALM 29.96F NEW HAVEN MOCLDY 70 61 73 S8 29.97S CHESTER FAIR 66 57 72 S5 29.99S GROTON MOCLDY 67 60 78 S3 29.97F WILLIMANTIC PTCLDY 72 55 55 SE6 29.97S IN RI CITY SKY/WX TMP DP RH WIND PRES REMARKS PROVIDENCE MOCLDY 70 52 52 SW9 29.98R BLOCK ISLAND MOCLDY 66 57 72 SW6 29.99S WESTERLY MOCLDY 70 57 63 SW3 29.99S IN MA CITY SKY/WX TMP DP RH WIND PRES REMARKS BOSTON MOCLDY 71 55 56 E7 29.96R WORCESTER CLEAR 72 51 47 CALM 29.99S WESTFIELD PTCLDY 73 53 49 W3 29.96R PROVINCETOWN CLEAR 68 10 10 S8 29.99R NANTUCKET PTCLDY 61 56 83 SE5 29.99R $$ ANZ330-335-338-340-345-350-353-355-040100- COASTAL MARINE OBSERVATIONS STATION/POSITION TIME SKY/WX TEMP WIND PRES VSBY WAVE AIR SEA DIR/SP/G HT/PER (UTC) (F) (DEG/KT/KT) (MB) (MI) (FT/S) NY HARB ENTRANCE 2350 71 69 190/ 10/ 12 1014.3 3/ 8 4S FIRE IS 2303 70 N/A 3/ 8 20S FIRE ISLAND 2350 70 70 170/ 8/ 8 1014.6 3/ 8 GREAT SOUTH BAY 2315 71 76 170/ 6/ 8 N/A 23SW MTP 2350 68 70 170/ 4/ 6 1014.9 3/ 8 HUDSON CANYON NOT AVBL KINGS POINT 2300 75 68 190/ 5/ 8 1013.8 CENTRAL LI SOUND NOT AVBL EASTERN LI SOUND 2300 71 64 190/ 6/ 8 N/A ROBBINS REEF 2300 73 160/ 13/ 14 1013.1 $$ >>>>>>>>>>>>>>>>>>>>>>>>>>>> KEY <<<<<<<<<<<<<<<<<<<<<<<<<<< > < > SKY/WX - SKY CONDITION/PRESENT WEATHER < > TMP - TEMPERATURE IN FAHRENHEIT < > DP - DEWPOINT IN FAHRENHEIT < > RH - RELATIVE HUMIDITY IN PERCENT < > WIND - DIRECTION AND SPEED IN MPH < > PRES - MEAN SEA LEVEL PRESSURE IN INCHES OF HG < > WCI - WIND CHILL INDEX < > VSB - VISIBILITY IN MILES < > HX - HEAT INDEX < > TC - TEMPERATURE IN CELSIUS < > VRB - VARIABLE WIND DIRECTION < > < >>>>>>>>>>>>>>>>>>>>>>>>>>>> KEY <<<<<<<<<<<<<<<<<<<<<<<<<<<

USA.gov is the U.S. government's official web portal to all federal, state and local government web resources and services.